DW9433 Weather Reports


time (UTC)temp
C
wind
direction
speed
KPH
gust
KPH
rain 1hr
cm
rain 24hr
cm
rain mn
cm
humidity
%
barometer
mb
20260504081534 16 201 0.0 0.0 0.00 0.00 0.00 68 1013.3
20260504050008 15 195 0.0 0.0 0.00 0.00 0.00 66 1014.8
20260504044514 16 195 0.0 0.0 0.00 0.00 0.00 65 1014.8
20260504043015 15 195 0.0 0.0 0.00 0.00 0.00 65 1014.8
20260504041507 15 195 0.0 0.0 0.00 0.00 0.00 66 1014.8
20260504040008 15 195 0.0 0.0 0.00 0.00 0.00 68 1014.8
20260504034507 15 195 0.0 0.0 0.00 0.00 0.00 70 1014.9
20260504033007 15 195 0.0 0.0 0.00 0.00 0.00 70 1015.0
20260504031505 15 195 0.0 0.0 0.00 0.00 0.00 69 1015.2
20260504030005 15 195 0.0 0.0 0.00 0.00 0.00 67 1015.2
20260504024508 15 195 0.0 0.0 0.00 0.00 0.00 66 1015.2
20260504023008 16 195 0.0 0.0 0.00 0.00 0.00 65 1015.0
20260504021505 16 195 0.0 0.0 0.00 0.00 0.00 62 1015.0
20260504020007 17 195 0.0 0.0 0.00 0.00 0.00 60 1014.9
20260504014504 18 195 0.0 0.0 0.00 0.00 0.00 56 1014.8
20260504013003 18 195 0.0 0.0 0.00 0.00 0.00 52 1014.6
20260504011503 20 195 0.0 0.0 0.00 0.00 0.00 49 1014.7
20260504010002 20 195 0.0 0.0 0.00 0.00 0.00 46 1014.6
20260504004501 21 195 0.0 0.0 0.00 0.00 0.00 44 1014.7
20260504003000 21 195 0.0 0.0 0.00 0.00 0.00 43 1014.7
20260504001618 21 195 0.0 0.0 0.00 0.00 0.00 41 1014.7
20260504000059 22 97 0.0 0.0 0.00 0.00 0.00 40 1014.7
20260503234558 22 184 0.0 0.0 0.00 0.00 0.00 39 1014.8
20260503233057 22 186 0.0 0.0 0.00 0.00 0.00 39 1015.0
20260503231555 22 140 0.0 1.6 0.00 0.00 0.00 37 1015.1
20260503230058 22 169 0.0 0.0 0.00 0.00 0.00 37 1015.2
20260503224553 22 205 0.0 4.8 0.00 0.00 0.00 36 1015.4
20260503223051 23 248 0.0 6.4 0.00 0.00 0.00 36 1015.6
20260503221549 23 119 0.0 6.4 0.00 0.00 0.00 36 1015.7
20260503220051 23 218 0.0 4.8 0.00 0.00 0.00 36 1015.9
20260503214546 23 180 1.6 8.0 0.00 0.00 0.00 34 1016.1
20260503213050 23 130 0.0 4.8 0.00 0.00 0.00 33 1016.3
20260503211541 23 146 0.0 4.8 0.00 0.00 0.00 35 1016.6
20260503210040 24 257 0.0 4.8 0.00 0.00 0.00 35 1016.8
20260503204538 24 231 0.0 8.0 0.00 0.00 0.00 31 1017.1
20260503203035 23 168 0.0 0.0 0.00 0.00 0.00 34 1017.3
20260503201534 23 211 1.6 11.3 0.00 0.00 0.00 33 1017.5
20260503200031 23 167 0.0 0.0 0.00 0.00 0.00 35 1017.8
20260503194529 23 160 0.0 6.4 0.00 0.00 0.00 33 1018.2
20260503193032 23 172 0.0 6.4 0.00 0.00 0.00 37 1018.3
20260503191524 23 291 0.0 4.8 0.00 0.00 0.00 36 1018.6
20260503190022 23 154 0.0 9.7 0.00 0.00 0.00 37 1018.9
20260503184519 22 42 0.0 6.4 0.00 0.00 0.00 39 1019.1
20260503183024 22 220 0.0 3.2 0.00 0.00 0.00 39 1019.3
20260503181513 22 209 0.0 4.8 0.00 0.00 0.00 39 1019.6
20260503180017 22 196 0.0 4.8 0.00 0.00 0.00 39 1020.0
20260503174510 21 174 1.6 12.9 0.00 0.00 0.00 41 1020.1
20260503173010 21 172 1.6 11.3 0.00 0.00 0.00 39 1020.5
20260503171508 21 137 0.0 4.8 0.00 0.00 0.00 42 1020.7